Flag for Honduras Weather past 2 weeks in Choloma, Honduras

Now
75 °F

Passing clouds.


Feels Like: 74 °F
Forecast: 74 / 85 °F
Wind: 9 mph from Southwest

Location: La Mesa San Pedro Sula

Current Time: Aug 31, 2014 at 5:08:47 AM

Latest Report: Aug 31, 2014 at 4:00 AM


Visibility: N/A

Pressure: 29.83 "Hg

Humidity: 94%

Dew point: 73 °F

Location of CholomaLocation

Historic Weather in Choloma — Graph

°F

Choloma temperature yesterday

Maximum temperature yesterday: 95 °F (at 2:00 PM)
Minimum temperature yesterday: 75 °F (at 12:00 AM)
Average temperature yesterday: 81 °F

Past Weeks' High & Low Weather Summary

 TemperatureHumidityPressure
High95 °F (Aug 25, 2:00 PM)100% (Aug 16, 4:00 AM)30.01 "Hg (Aug 16, 4:00 AM)
Low72 °F (Aug 20, 3:00 AM)47% (Aug 27, 12:00 PM)29.74 "Hg (Aug 25, 3:00 PM)
Average82 °F81%29.90 "Hg
* Reported Aug 16 4:00 AM — Aug 31 4:00 AM, Choloma, Weather by CustomWeather, © 2014

Note: Actual official high and low records may vary slightly from our data, if they occured in-between our weather recording intervals... More about our weather records

Advertising

Choloma weather history for previous 24 hours

 ConditionsComfort  
Time TempWeatherWind HumidityBarometerVisibility
4:00 AM
Aug 31
75 °FPassing clouds.9 mph94%29.83 "HgN/A
3:00 AM73 °FPassing clouds.7 mph100%29.86 "HgN/A
2:00 AM75 °FPassing clouds.8 mph94%29.89 "HgN/A
12:00 AM75 °FPassing clouds.12 mph94%29.89 "HgN/A
11:00 PM
Aug 30
75 °FPassing clouds.9 mph94%29.89 "HgN/A
10:00 PM75 °FThunderstorms. Partly cloudy.7 mph94%29.89 "HgN/A
9:00 PM75 °FThundershowers. Partly cloudy.5 mph89%29.89 "HgN/A
8:00 PM79 °FThunderstorms. Partly cloudy.16 mph79%29.86 "HgN/A
7:00 PM81 °FThunderstorms. Partly cloudy.5 mph89%29.83 "HgN/A
6:00 PM82 °FBroken clouds.9 mph84%29.80 "HgN/A
5:00 PM84 °FPartly sunny.14 mph79%29.77 "HgN/A
4:00 PM84 °FBroken clouds.15 mph74%29.77 "HgN/A
3:00 PM91 °FScattered clouds.14 mph59%29.77 "HgN/A
2:00 PM95 °FScattered clouds.6 mph47%29.77 "HgN/A
1:00 PM91 °FHot.2 mph52%29.80 "HgN/A
12:00 PM90 °FPartly sunny.2 mph63%29.86 "HgN/A
11:00 AM90 °FScattered clouds.2 mph63%29.86 "HgN/A
10:00 AM88 °FScattered clouds.5 mph66%29.89 "HgN/A
9:00 AM84 °FPartly sunny.2 mph74%29.92 "HgN/A
8:00 AM81 °FPartly sunny.5 mph84%29.92 "HgN/A
7:00 AM77 °FPartly sunny.2 mph94%29.89 "HgN/A
6:00 AM75 °FPartly sunny.2 mph94%29.89 "HgN/A
5:00 AM75 °FPassing clouds.5 mph94%29.89 "HgN/A
Weather by CustomWeather, © 2014

See weather overviewHow to use our weather pages